Weather History for Green Bay, WI

Change the Weather History Date:

Monday, February 18, 2013

  Actual Average Record
Temperature  
Mean Temperature 32 °F 21 °F  
Max Temperature 39 °F 29 °F 50 °F (1954)
Min Temperature 25 °F 13 °F -21 °F (1936)
Degree Days  
Heating Degree Days 33 44  
Month to date heating degree days 863 830  
Since 1 July heating degree days 5028 5419  
Cooling Degree Days 0 0  
Month to date cooling degree days 0 0  
Year to date cooling degree days 0 0  
Moisture  
Dew Point 27 °F    
Average Humidity 72    
Maximum Humidity 89    
Minimum Humidity 55    
Precipitation  
Precipitation 0.25 in 0.04 in 1.02 in (1887)
Month to date precipitation 1.48 0.64  
Year to date precipitation 3.84 1.77  
Snow  
Snow 0.80 in 0.30 in 6.60 in (1887)
Month to date snowfall 9.2 6.4  
Since 1 July snowfall 48.3 36.7  
Snow Depth 6.00 in    
Sea Level Pressure  
Sea Level Pressure 29.59 in    
Wind  
Wind Speed 11 mph (SSW)    
Max Wind Speed 20 mph    
Max Gust Speed 25 mph    
Visibility 7 miles    
Events Rain , Snow    
T = Trace of Precipitation, MM = Missing Value Source: NWS Daily Summary

Daily Weather History Graph

Daily Weather History Graph

Search for Another Location

Airport:

Trip Planner

Search our weather history database for the weather conditions in past years. The results will help you decide how hot, cold, wet, or windy it might be!

Date:

Astronomy

Feb. 18, 2013 Rise Set
Actual Time 6:47 AM CST 5:25 PM CST
Civil Twilight 6:17 AM CST 5:55 PM CST
Nautical Twilight 5:43 AM CST 6:29 PM CST
Astronomical Twilight 5:10 AM CST 7:03 PM CST
Moon 11:04 AM CST (2/18) 1:33 AM CST (2/18)
Length of Visible Light 11h 37m
Length of Day
10h 38m
First Quarter, 58% of the Moon is Illuminated
Feb 18
First Quarter
Feb 25
Full
Mar 4
Last Quarter
Mar 11
New
Mar 19
First Quarter

Hourly Weather History & Observations

Time (CST) Temp. Windchill Dew Point Humidity Pressure Visibility Wind Dir Wind Speed Gust Speed Precip Events Conditions
12:53 AM 27.0 °F 15.2 °F 14.0 °F 58% 29.96 in 10.0 mi SSE 15.0 mph - N/A   Overcast
1:53 AM 28.0 °F 17.0 °F 17.1 °F 63% 29.94 in 10.0 mi SSE 13.8 mph - N/A   Overcast
2:53 AM 28.9 °F 17.3 °F 19.9 °F 69% 29.88 in 10.0 mi SSE 16.1 mph - N/A   Overcast
3:53 AM 28.9 °F 16.1 °F 19.9 °F 69% 29.82 in 10.0 mi SSE 19.6 mph - N/A   Partly Cloudy
4:53 AM 30.0 °F 17.9 °F 21.9 °F 72% 29.79 in 10.0 mi SSE 18.4 mph - N/A   Scattered Clouds
5:53 AM 30.0 °F 19.1 °F 21.9 °F 72% 29.76 in 10.0 mi SSE 15.0 mph - N/A   Clear
6:53 AM 30.9 °F 19.8 °F 21.9 °F 69% 29.75 in 10.0 mi South 16.1 mph - N/A   Clear
7:53 AM 30.0 °F 19.5 °F 21.9 °F 72% 29.72 in 10.0 mi SSE 13.8 mph - N/A   Clear
8:53 AM 32.0 °F 22.1 °F 23.0 °F 69% 29.70 in 10.0 mi South 13.8 mph - N/A   Clear
9:53 AM 33.1 °F 24.4 °F 24.1 °F 70% 29.68 in 10.0 mi South 11.5 mph - N/A   Clear
10:53 AM 36.0 °F 27.5 °F 25.0 °F 64% 29.65 in 10.0 mi South 12.7 mph - N/A   Clear
11:53 AM 37.9 °F 29.2 °F 26.1 °F 62% 29.63 in 10.0 mi South 15.0 mph - N/A   Clear
12:53 PM 37.9 °F 31.5 °F 27.0 °F 65% 29.58 in 10.0 mi South 9.2 mph - N/A   Clear
1:53 PM 37.9 °F 31.5 °F 28.9 °F 70% 29.56 in 10.0 mi SSE 9.2 mph - N/A   Clear
2:53 PM 39.0 °F 32.3 °F 28.9 °F 67% 29.54 in 9.0 mi SSE 10.4 mph - N/A   Clear
3:53 PM 37.0 °F 32.4 °F 30.0 °F 76% 29.54 in 9.0 mi SSE 5.8 mph - N/A   Overcast
4:53 PM 37.0 °F 34.5 °F 30.0 °F 76% 29.52 in 8.0 mi WSW 3.5 mph - N/A   Overcast
5:53 PM 36.0 °F - 30.0 °F 79% 29.51 in 8.0 mi Calm Calm - 0.00 in Rain Light Rain
6:53 PM 35.1 °F 32.2 °F 32.0 °F 89% 29.49 in 5.0 mi ENE 3.5 mph - 0.00 in   Overcast
7:53 PM 35.1 °F 31.0 °F 32.0 °F 89% 29.47 in 5.0 mi North 4.6 mph - 0.01 in   Overcast
8:30 PM 35.1 °F - 32.0 °F 89% 29.43 in 4.0 mi Calm Calm - 0.01 in Rain Light Rain
8:53 PM 35.1 °F 28.6 °F 32.0 °F 89% 29.44 in 3.0 mi NW 8.1 mph - 0.03 in Rain Light Rain
9:22 PM 34.0 °F 28.0 °F 32.0 °F 92% 29.41 in 2.0 mi NW 6.9 mph - 0.02 in Snow Light Snow
9:25 PM 34.0 °F 28.0 °F 32.0 °F 92% 29.41 in 1.8 mi NW 6.9 mph - 0.03 in Snow Light Snow
9:46 PM 33.1 °F 26.9 °F 30.9 °F 92% 29.40 in 1.0 mi NW 6.9 mph - 0.05 in Snow Light Snow
9:53 PM 33.1 °F 26.1 °F 30.9 °F 92% 29.42 in 1.0 mi NW 8.1 mph - 0.06 in Snow Light Snow
10:22 PM 33.1 °F 26.1 °F 32.0 °F 96% 29.39 in 0.8 mi NW 8.1 mph - 0.03 in Snow Light Snow
10:33 PM 33.1 °F 26.1 °F 30.9 °F 92% 29.39 in 0.8 mi NW 8.1 mph - 0.04 in Snow Light Snow
10:45 PM 33.1 °F 25.5 °F 30.9 °F 92% 29.38 in 0.8 mi NW 9.2 mph - 0.06 in Snow Light Snow
10:53 PM 33.1 °F 26.1 °F 30.9 °F 92% 29.41 in 0.8 mi NW 8.1 mph - 0.07 in Snow Light Snow
11:53 PM 33.1 °F 23.9 °F 30.9 °F 92% 29.42 in 0.8 mi WNW 12.7 mph - 0.06 in Snow Light Snow